START_TIME,STEP,MOV.,A46,t_acc.,A13,t_acc.,M47,t_acc.,A17,t_acc.,A28,t_acc.,M38,t_acc.
1979-07-16 18:00:25.550 ,0,1,,0,3.,4.8,1.,4.8,,0,0.,4.8,0.,4.8
1979-07-16 18:00:30.350 ,0,1,,0,2.,4.8,0.,4.8,,0,0.,4.8,0.,4.8
1979-07-16 18:00:35.150 ,0,1,,0,0.,4.8,0.,4.8,,0,0.,4.8,0.,4.8
1979-07-16 18:00:39.950 ,0,1,,0,0.,4.8,0.,4.8,,0,0.,4.8,0.,4.8
1979-07-16 18:00:44.750 ,0,1,,0,0.,4.8,0.,4.8,,0,0.,4.8,0.,4.8
1979-07-16 18:00:49.550 ,4,1,,0,0.,4.8,0.,4.8,,0,0.,4.8,0.,4.8
1979-07-16 18:00:54.350 ,4,1,,0,0.,4.8,0.,4.8,,0,0.,4.8,0.,4.8
1979-07-16 18:00:59.150 ,4,1,,0,0.,4.8,0.,4.8,,0,0.,4.8,0.,4.8
1979-07-16 18:01:03.950 ,4,1,,0,2.,4.8,0.,4.8,,0,0.,4.8,0.,4.8
1979-07-16 18:01:08.750 ,4,1,,0,1.,4.8,0.,4.8,,0,0.,4.8,0.,4.8
1979-07-16 18:01:13.550 ,7,1,,0,3.,4.8,0.,4.8,,0,0.,4.8,0.,4.8
1979-07-16 18:01:18.350 ,7,1,,0,3.,4.8,0.,4.8,,0,0.,4.8,0.,4.8
1979-07-16 18:01:23.150 ,7,1,,0,3.,4.8,0.,4.8,,0,0.,4.8,0.,4.8
1979-07-16 18:01:27.950 ,7,1,,0,0.,4.8,0.,4.8,,0,0.,4.8,0.,4.8
1979-07-16 18:01:32.750 ,7,1,,0,0.,4.8,0.,4.8,,0,0.,4.8,0.,4.8
1979-07-16 18:01:37.550 ,3,1,,0,0.,4.8,0.,4.8,,0,0.,4.8,0.,4.8
1979-07-16 18:01:42.350 ,3,1,,0,0.,4.8,0.,4.8,,0,0.,4.8,0.,4.8
1979-07-16 18:01:47.150 ,3,1,,0,0.,4.8,0.,4.8,,0,0.,4.8,0.,4.8
1979-07-16 18:01:51.950 ,3,1,,0,4.,4.8,0.,4.8,,0,0.,4.8,0.,4.8
1979-07-16 18:01:56.750 ,3,1,,0,1.,4.8,0.,4.8,,0,0.,4.8,1.,4.8
1979-07-16 18:02:01.550 ,0,1,,0,3.,4.8,1.,4.8,,0,0.,4.8,0.,4.8
1979-07-16 18:02:06.350 ,0,1,,0,2.,4.8,0.,4.8,,0,0.,4.8,0.,4.8
1979-07-16 18:02:11.150 ,0,1,,0,0.,4.8,0.,4.8,,0,0.,4.8,0.,4.8
1979-07-16 18:02:15.950 ,0,1,,0,0.,4.8,0.,4.8,,0,0.,4.8,0.,4.8
1979-07-16 18:02:20.750 ,0,1,,0,0.,4.8,0.,4.8,,0,0.,4.8,0.,4.8
1979-07-16 18:02:25.550 ,4,1,,0,0.,4.8,0.,4.8,,0,0.,4.8,0.,4.8
1979-07-16 18:02:30.350 ,4,1,,0,0.,4.8,0.,4.8,,0,0.,4.8,0.,4.8
1979-07-16 18:02:35.150 ,4,1,,0,0.,4.8,0.,4.8,,0,0.,4.8,0.,4.8
1979-07-16 18:02:39.950 ,4,1,,0,5.,4.8,0.,4.8,,0,0.,4.8,0.,4.8
1979-07-16 18:02:44.750 ,4,1,,0,3.,4.8,0.,4.8,,0,0.,4.8,0.,4.8
1979-07-16 18:02:49.550 ,7,1,,0,2.,4.8,0.,4.8,,0,0.,4.8,0.,4.8
1979-07-16 18:02:54.350 ,7,1,,0,2.,4.8,0.,4.8,,0,0.,4.8,0.,4.8
1979-07-16 18:02:59.150 ,7,1,,0,3.,4.8,0.,4.8,,0,0.,4.8,0.,4.8
1979-07-16 18:03:03.950 ,7,1,,0,0.,4.8,0.,4.8,,0,0.,4.8,0.,4.8
1979-07-16 18:03:08.750 ,7,1,,0,1.,4.8,0.,4.8,,0,0.,4.8,0.,4.8
1979-07-16 18:04:49.550 ,0,0,,0,0.,4.8,0.,4.8,,0,0.,4.8,0.,4.8
1979-07-16 18:04:54.350 ,0,0,,0,0.,4.8,0.,4.8,,0,0.,4.8,0.,4.8
1979-07-16 18:04:59.150 ,0,0,,0,1.,4.8,0.,4.8,,0,0.,4.8,0.,4.8
1979-07-16 18:05:03.950 ,0,0,,0,6.,4.8,0.,4.8,,0,0.,4.8,0.,4.8
1979-07-16 18:05:08.750 ,0,0,,0,2.,4.8,0.,4.8,,0,0.,4.8,0.,4.8
1979-07-16 18:05:13.550 ,0,1,,0,3.,4.8,0.,4.8,,0,0.,4.8,0.,4.8
1979-07-16 18:05:18.350 ,0,1,,0,1.,4.8,0.,4.8,,0,0.,4.8,0.,4.8
1979-07-16 18:05:23.150 ,0,1,,0,0.,4.8,0.,4.8,,0,0.,4.8,0.,4.8
1979-07-16 18:05:27.950 ,0,1,,0,0.,4.8,0.,4.8,,0,0.,4.8,0.,4.8
1979-07-16 18:05:32.750 ,0,1,,0,0.,4.8,0.,4.8,,0,0.,4.8,0.,4.8
1979-07-16 18:05:37.550 ,0,0,,0,0.,4.8,0.,4.8,,0,0.,4.8,0.,4.8
1979-07-16 18:05:42.350 ,0,0,,0,0.,4.8,0.,4.8,,0,0.,4.8,1.,4.8
1979-07-16 18:05:47.150 ,0,0,,0,0.,4.8,0.,4.8,,0,0.,4.8,0.,4.8
1979-07-16 18:05:51.950 ,0,0,,0,1.,4.8,0.,4.8,,0,0.,4.8,0.,4.8
1979-07-16 18:05:56.750 ,0,0,,0,1.,4.8,0.,4.8,,0,0.,4.8,0.,4.8
1979-07-16 18:06:01.550 ,0,0,,0,5.,4.8,0.,4.8,,0,0.,4.8,1.,4.8
1979-07-16 18:06:06.350 ,0,0,,0,1.,4.8,0.,4.8,,0,0.,4.8,0.,4.8
1979-07-16 18:06:11.150 ,0,0,,0,4.,4.8,0.,4.8,,0,0.,4.8,0.,4.8
1979-07-16 18:06:15.950 ,0,0,,0,0.,4.8,0.,4.8,,0,0.,4.8,0.,4.8
1979-07-16 18:06:20.750 ,0,0,,0,0.,4.8,0.,4.8,,0,0.,4.8,0.,4.8
1979-07-16 18:06:25.550 ,5,0,,0,0.,4.8,0.,4.8,,0,0.,4.8,0.,4.8
1979-07-16 18:06:30.350 ,5,0,,0,0.,4.8,0.,4.8,,0,0.,4.8,0.,4.8
1979-07-16 18:06:35.150 ,5,0,,0,0.,4.8,0.,4.8,,0,0.,4.8,0.,4.8
1979-07-16 18:06:39.950 ,5,0,,0,2.,4.8,0.,4.8,,0,0.,4.8,0.,4.8
1979-07-16 18:06:44.750 ,5,0,,0,5.,4.8,0.,4.8,,0,0.,4.8,0.,4.8
1979-07-16 18:06:49.550 ,0,0,,0,2.,4.8,0.,4.8,,0,0.,4.8,0.,4.8
1979-07-16 18:06:54.350 ,0,0,,0,4.,4.8,0.,4.8,,0,0.,4.8,0.,4.8
1979-07-16 18:06:59.150 ,0,0,,0,3.,4.8,0.,4.8,,0,0.,4.8,1.,4.8
1979-07-16 18:07:03.950 ,0,0,,0,,0,,0,,0,,0,,0
1979-07-16 18:07:08.750 ,0,0,,0,,0,,0,,0,,0,,0
1979-07-16 18:07:07.550 ,0,0,,0,,0,,0,,0,,0,,0
1979-07-16 18:07:12.350 ,0,0,,0,,0,,0,,0,,0,,0
1979-07-16 18:07:17.150 ,0,0,,0,,0,,0,,0,,0,,0
1979-07-16 18:07:21.950 ,0,0,,0,,0,,0,,0,,0,,0
1979-07-16 18:07:26.750 ,0,0,,0,0.,4.8,0.,4.8,,0,0.,4.8,0.,4.8
1979-07-16 18:07:13.550 ,4,0,,0,0.,4.8,0.,4.8,,0,0.,4.8,0.,4.8
1979-07-16 18:07:18.350 ,4,0,,0,0.,4.8,0.,4.8,,0,0.,4.8,0.,4.8
1979-07-16 18:07:23.150 ,4,0,,0,0.,4.8,0.,4.8,,0,0.,4.8,0.,4.8
1979-07-16 18:07:27.950 ,4,0,,0,1.,4.8,0.,4.8,,0,0.,4.8,0.,4.8
1979-07-16 18:07:32.750 ,4,0,,0,2.,4.8,0.,4.8,,0,0.,4.8,0.,4.8
1979-07-16 18:07:37.550 ,4,0,,0,1.,4.8,0.,4.8,,0,0.,4.8,0.,4.8
1979-07-16 18:07:42.350 ,4,0,,0,2.,4.8,0.,4.8,,0,0.,4.8,0.,4.8
1979-07-16 18:07:47.150 ,4,0,,0,2.,4.8,0.,4.8,,0,0.,4.8,0.,4.8
1979-07-16 18:07:51.950 ,4,0,,0,0.,4.8,0.,4.8,,0,0.,4.8,0.,4.8
1979-07-16 18:07:56.750 ,4,0,,0,0.,4.8,0.,4.8,,0,0.,4.8,1.,4.8
1979-07-16 18:08:01.550 ,3,0,,0,0.,4.8,0.,4.8,,0,0.,4.8,0.,4.8
1979-07-16 18:08:06.350 ,3,0,,0,0.,4.8,0.,4.8,,0,0.,4.8,0.,4.8
1979-07-16 18:08:11.150 ,3,0,,0,0.,4.8,0.,4.8,,0,0.,4.8,0.,4.8
1979-07-16 18:08:15.950 ,3,0,,0,3.,4.8,0.,4.8,,0,0.,4.8,0.,4.8
1979-07-16 18:08:20.750 ,3,0,,0,2.,4.8,0.,4.8,,0,0.,4.8,0.,4.8
1979-07-16 18:08:25.550 ,3,0,,0,1.,4.8,0.,4.8,,0,0.,4.8,0.,4.8
1979-07-16 18:08:30.350 ,3,0,,0,4.,4.8,0.,4.8,,0,0.,4.8,1.,4.8
1979-07-16 18:08:35.150 ,3,0,,0,1.,4.8,0.,4.8,,0,0.,4.8,0.,4.8
1979-07-16 18:08:39.950 ,3,0,,0,0.,4.8,0.,4.8,,0,0.,4.8,0.,4.8
1979-07-16 18:08:44.750 ,3,0,,0,0.,4.8,0.,4.8,,0,0.,4.8,0.,4.8
1979-07-16 18:08:49.550 ,2,0,,0,0.,4.8,0.,4.8,,0,0.,4.8,1.,4.8
1979-07-16 18:08:54.350 ,2,0,,0,0.,4.8,0.,4.8,,0,0.,4.8,1.,4.8
1979-07-16 18:08:59.150 ,2,0,,0,0.,4.8,0.,4.8,,0,0.,4.8,0.,4.8
1979-07-16 18:09:03.950 ,2,0,,0,0.,4.8,0.,4.8,,0,0.,4.8,0.,4.8
1979-07-16 18:09:08.750 ,2,0,,0,0.,4.8,0.,4.8,,0,0.,4.8,1.,4.8
1979-07-16 18:09:13.550 ,2,0,,0,2.,4.8,0.,4.8,,0,0.,4.8,0.,4.8
1979-07-16 18:09:18.350 ,2,0,,0,1.,4.8,0.,4.8,,0,0.,4.8,0.,4.8
1979-07-16 18:09:23.150 ,2,0,,0,1.,4.8,0.,4.8,,0,0.,4.8,0.,4.8
1979-07-16 18:09:27.950 ,2,0,,0,0.,4.8,0.,4.8,,0,0.,4.8,1.,4.8
1979-07-16 18:09:32.750 ,2,0,,0,0.,4.8,0.,4.8,,0,0.,4.8,0.,4.8
1979-07-16 18:09:37.550 ,1,0,,0,0.,4.8,0.,4.8,,0,0.,4.8,0.,4.8
1979-07-16 18:09:42.350 ,1,0,,0,0.,4.8,0.,4.8,,0,0.,4.8,0.,4.8
1979-07-16 18:09:47.150 ,1,0,,0,0.,4.8,0.,4.8,,0,0.,4.8,0.,4.8
1979-07-16 18:09:51.950 ,1,0,,0,0.,4.8,0.,4.8,,0,0.,4.8,0.,4.8
1979-07-16 18:09:56.750 ,1,0,,0,0.,4.8,0.,4.8,,0,0.,4.8,0.,4.8
1979-07-16 18:10:01.550 ,1,0,,0,1.,4.8,0.,4.8,,0,0.,4.8,0.,4.8
1979-07-16 18:10:06.350 ,1,0,,0,2.,4.8,0.,4.8,,0,0.,4.8,0.,4.8
1979-07-16 18:10:11.150 ,1,0,,0,3.,4.8,0.,4.8,,0,0.,4.8,0.,4.8
1979-07-16 18:10:15.950 ,1,0,,0,0.,4.8,0.,4.8,,0,0.,4.8,0.,4.8
1979-07-16 18:10:20.750 ,1,0,,0,0.,4.8,0.,4.8,,0,0.,4.8,0.,4.8
1979-07-16 18:10:25.550 ,0,0,,0,0.,4.8,0.,4.8,,0,0.,4.8,0.,4.8
1979-07-16 18:10:30.350 ,0,0,,0,0.,4.8,0.,4.8,,0,0.,4.8,0.,4.8
1979-07-16 18:10:35.150 ,0,0,,0,0.,4.8,0.,4.8,,0,0.,4.8,0.,4.8
1979-07-16 18:10:39.950 ,0,0,,0,2.,4.8,0.,4.8,,0,0.,4.8,0.,4.8
1979-07-16 18:10:44.750 ,0,0,,0,1.,4.8,0.,4.8,,0,0.,4.8,0.,4.8
1979-07-16 18:10:49.550 ,0,0,,0,2.,4.8,0.,4.8,,0,0.,4.8,0.,4.8
1979-07-16 18:10:54.350 ,0,0,,0,1.,4.8,0.,4.8,,0,0.,4.8,0.,4.8
1979-07-16 18:10:59.150 ,0,0,,0,1.,4.8,0.,4.8,,0,0.,4.8,0.,4.8
1979-07-16 18:11:03.950 ,0,0,,0,0.,4.8,0.,4.8,,0,0.,4.8,0.,4.8
1979-07-16 18:11:08.750 ,0,0,,0,0.,4.8,0.,4.8,,0,0.,4.8,0.,4.8
1979-07-16 18:11:13.550 ,0,0,,0,0.,4.8,0.,4.8,,0,0.,4.8,0.,4.8
1979-07-16 18:11:18.350 ,0,0,,0,0.,4.8,0.,4.8,,0,0.,4.8,0.,4.8
1979-07-16 18:11:23.150 ,0,0,,0,0.,4.8,0.,4.8,,0,0.,4.8,0.,4.8
1979-07-16 18:11:27.950 ,0,0,,0,0.,4.8,0.,4.8,,0,0.,4.8,0.,4.8
1979-07-16 18:11:32.750 ,0,0,,0,2.,4.8,0.,4.8,,0,0.,4.8,0.,4.8
1979-07-16 18:11:37.550 ,0,0,,0,1.,4.8,0.,4.8,,0,0.,4.8,0.,4.8
1979-07-16 18:11:42.350 ,0,0,,0,1.,4.8,0.,4.8,,0,0.,4.8,0.,4.8
1979-07-16 18:11:47.150 ,0,0,,0,1.,4.8,0.,4.8,,0,0.,4.8,0.,4.8
1979-07-16 18:11:51.950 ,0,0,,0,0.,4.8,0.,4.8,,0,0.,4.8,0.,4.8
1979-07-16 18:11:56.750 ,0,0,,0,0.,4.8,0.,4.8,,0,0.,4.8,0.,4.8
1979-07-16 18:12:01.550 ,1,0,,0,0.,4.8,0.,4.8,,0,0.,4.8,0.,4.8
1979-07-16 18:12:06.350 ,1,0,,0,0.,4.8,0.,4.8,,0,0.,4.8,0.,4.8
1979-07-16 18:12:11.150 ,1,0,,0,0.,4.8,0.,4.8,,0,0.,4.8,0.,4.8
1979-07-16 18:12:15.950 ,1,0,,0,0.,4.8,0.,4.8,,0,0.,4.8,0.,4.8
1979-07-16 18:12:20.750 ,1,0,,0,3.,4.8,0.,4.8,,0,0.,4.8,0.,4.8
1979-07-16 18:12:25.550 ,1,0,,0,2.,4.8,0.,4.8,,0,0.,4.8,0.,4.8
1979-07-16 18:12:30.350 ,1,0,,0,1.,4.8,0.,4.8,,0,0.,4.8,0.,4.8
1979-07-16 18:12:35.150 ,1,0,,0,1.,4.8,0.,4.8,,0,0.,4.8,0.,4.8
1979-07-16 18:12:39.950 ,1,0,,0,0.,4.8,0.,4.8,,0,0.,4.8,0.,4.8
1979-07-16 18:12:44.750 ,1,0,,0,0.,4.8,0.,4.8,,0,0.,4.8,0.,4.8
1979-07-16 18:12:49.550 ,2,0,,0,0.,4.8,0.,4.8,,0,0.,4.8,0.,4.8
1979-07-16 18:12:54.350 ,2,0,,0,0.,4.8,0.,4.8,,0,0.,4.8,0.,4.8
1979-07-16 18:12:59.150 ,2,0,,0,0.,4.8,0.,4.8,,0,0.,4.8,0.,4.8
1979-07-16 18:13:03.950 ,2,0,,0,1.,4.8,0.,4.8,,0,0.,4.8,0.,4.8
1979-07-16 18:13:08.750 ,2,0,,0,0.,4.8,0.,4.8,,0,0.,4.8,1.,4.8
1979-07-16 18:13:13.550 ,2,0,,0,0.,4.8,0.,4.8,,0,0.,4.8,0.,4.8
1979-07-16 18:13:18.350 ,2,0,,0,0.,4.8,0.,4.8,,0,0.,4.8,0.,4.8
1979-07-16 18:13:23.150 ,2,0,,0,1.,4.8,0.,4.8,,0,0.,4.8,0.,4.8
1979-07-16 18:13:27.950 ,2,0,,0,0.,4.8,0.,4.8,,0,0.,4.8,0.,4.8
1979-07-16 18:13:32.750 ,2,0,,0,0.,4.8,0.,4.8,,0,0.,4.8,0.,4.8
1979-07-16 18:13:37.550 ,3,0,,0,0.,4.8,0.,4.8,,0,0.,4.8,0.,4.8
1979-07-16 18:13:42.350 ,3,0,,0,0.,4.8,0.,4.8,,0,0.,4.8,0.,4.8
1979-07-16 18:13:47.150 ,3,0,,0,0.,4.8,0.,4.8,,0,0.,4.8,1.,4.8
1979-07-16 18:13:51.950 ,3,0,,0,1.,4.8,0.,4.8,,0,0.,4.8,0.,4.8
1979-07-16 18:13:56.750 ,3,0,,0,1.,4.8,0.,4.8,,0,0.,4.8,0.,4.8
1979-07-16 18:14:01.550 ,3,0,,0,2.,4.8,0.,4.8,,0,0.,4.8,1.,4.8
1979-07-16 18:14:06.350 ,3,0,,0,2.,4.8,0.,4.8,,0,0.,4.8,0.,4.8
1979-07-16 18:14:11.150 ,3,0,,0,3.,4.8,0.,4.8,,0,0.,4.8,0.,4.8
1979-07-16 18:14:15.950 ,3,0,,0,0.,4.8,0.,4.8,,0,0.,4.8,0.,4.8
1979-07-16 18:14:20.750 ,3,0,,0,0.,4.8,0.,4.8,,0,0.,4.8,0.,4.8
1979-07-16 18:14:25.550 ,4,0,,0,0.,4.8,0.,4.8,,0,0.,4.8,0.,4.8
1979-07-16 18:14:30.350 ,4,0,,0,0.,4.8,0.,4.8,,0,0.,4.8,0.,4.8
1979-07-16 18:14:35.150 ,4,0,,0,0.,4.8,0.,4.8,,0,0.,4.8,0.,4.8
1979-07-16 18:14:39.950 ,4,0,,0,2.,4.8,0.,4.8,,0,0.,4.8,0.,4.8
1979-07-16 18:14:44.750 ,4,0,,0,1.,4.8,0.,4.8,,0,0.,4.8,0.,4.8
1979-07-16 18:14:49.550 ,4,0,,0,3.,4.8,0.,4.8,,0,0.,4.8,0.,4.8
1979-07-16 18:14:54.350 ,4,0,,0,2.,4.8,0.,4.8,,0,0.,4.8,0.,4.8
1979-07-16 18:14:59.150 ,4,0,,0,4.,4.8,0.,4.8,,0,0.,4.8,0.,4.8
1979-07-16 18:15:03.950 ,4,0,,0,0.,4.8,0.,4.8,,0,0.,4.8,0.,4.8
1979-07-16 18:15:08.750 ,4,0,,0,0.,4.8,0.,4.8,,0,0.,4.8,0.,4.8
1979-07-16 18:15:13.550 ,5,0,,0,0.,4.8,0.,4.8,,0,0.,4.8,0.,4.8
1979-07-16 18:15:18.350 ,5,0,,0,0.,4.8,0.,4.8,,0,0.,4.8,0.,4.8
1979-07-16 18:15:23.150 ,5,0,,0,0.,4.8,0.,4.8,,0,0.,4.8,0.,4.8
1979-07-16 18:15:27.950 ,5,0,,0,4.,4.8,0.,4.8,,0,0.,4.8,0.,4.8
1979-07-16 18:15:32.750 ,5,0,,0,3.,4.8,0.,4.8,,0,0.,4.8,0.,4.8
1979-07-16 18:15:37.550 ,5,0,,0,4.,4.8,0.,4.8,,0,0.,4.8,0.,4.8
1979-07-16 18:15:42.350 ,5,0,,0,2.,4.8,0.,4.8,,0,0.,4.8,0.,4.8
1979-07-16 18:15:47.150 ,5,0,,0,0.,4.8,0.,4.8,,0,0.,4.8,0.,4.8
1979-07-16 18:15:51.950 ,5,0,,0,0.,4.8,0.,4.8,,0,0.,4.8,0.,4.8
1979-07-16 18:15:56.750 ,5,0,,0,0.,4.8,0.,4.8,,0,0.,4.8,0.,4.8
1979-07-16 18:16:01.550 ,6,0,,0,0.,4.8,0.,4.8,,0,0.,4.8,0.,4.8
1979-07-16 18:16:06.350 ,6,0,,0,1.,4.8,0.,4.8,,0,0.,4.8,0.,4.8
1979-07-16 18:16:11.150 ,6,0,,0,2.,4.8,0.,4.8,,0,0.,4.8,0.,4.8
1979-07-16 18:16:15.950 ,6,0,,0,4.,4.8,0.,4.8,,0,0.,4.8,0.,4.8
1979-07-16 18:16:20.750 ,6,0,,0,4.,4.8,1.,4.8,,0,0.,4.8,1.,4.8
1979-07-16 18:16:25.550 ,6,0,,0,5.,4.8,0.,4.8,,0,0.,4.8,0.,4.8
1979-07-16 18:16:30.350 ,6,0,,0,2.,4.8,0.,4.8,,0,0.,4.8,0.,4.8
1979-07-16 18:16:35.150 ,6,0,,0,2.,4.8,0.,4.8,,0,0.,4.8,0.,4.8
1979-07-16 18:16:39.950 ,6,0,,0,0.,4.8,0.,4.8,,0,0.,4.8,0.,4.8
1979-07-16 18:16:44.750 ,6,0,,0,0.,4.8,0.,4.8,,0,0.,4.8,0.,4.8
1979-07-16 18:16:49.550 ,7,0,,0,0.,4.8,0.,4.8,,0,0.,4.8,0.,4.8
1979-07-16 18:16:54.350 ,7,0,,0,0.,4.8,0.,4.8,,0,0.,4.8,0.,4.8
1979-07-16 18:16:59.150 ,7,0,,0,1.,4.8,0.,4.8,,0,0.,4.8,0.,4.8
1979-07-16 18:17:03.950 ,7,0,,0,11.,4.8,0.,4.8,,0,0.,4.8,1.,4.8
1979-07-16 18:17:08.750 ,7,0,,0,8.,4.8,0.,4.8,,0,0.,4.8,0.,4.8
1979-07-16 18:17:13.550 ,7,0,,0,12.,4.8,0.,4.8,,0,0.,4.8,0.,4.8
1979-07-16 18:17:18.350 ,7,0,,0,9.,4.8,0.,4.8,,0,0.,4.8,0.,4.8
1979-07-16 18:17:23.150 ,7,0,,0,12.,4.8,0.,4.8,,0,0.,4.8,0.,4.8
1979-07-16 18:17:27.950 ,7,0,,0,0.,4.8,0.,4.8,,0,0.,4.8,0.,4.8
1979-07-16 18:17:32.750 ,7,0,,0,0.,4.8,0.,4.8,,0,0.,4.8,0.,4.8
1979-07-16 18:17:37.550 ,7,0,,0,0.,4.8,0.,4.8,,0,0.,4.8,0.,4.8
1979-07-16 18:17:42.350 ,7,0,,0,0.,4.8,0.,4.8,,0,0.,4.8,0.,4.8
1979-07-16 18:17:47.150 ,7,0,,0,3.,4.8,0.,4.8,,0,0.,4.8,0.,4.8
1979-07-16 18:17:51.950 ,7,0,,0,12.,4.8,0.,4.8,,0,0.,4.8,0.,4.8
1979-07-16 18:17:56.750 ,7,0,,0,11.,4.8,0.,4.8,,0,0.,4.8,0.,4.8
1979-07-16 18:18:01.550 ,7,0,,0,10.,4.8,0.,4.8,,0,0.,4.8,1.,4.8
1979-07-16 18:18:06.350 ,7,0,,0,12.,4.8,0.,4.8,,0,0.,4.8,0.,4.8
1979-07-16 18:18:11.150 ,7,0,,0,5.,4.8,0.,4.8,,0,0.,4.8,0.,4.8
1979-07-16 18:18:15.950 ,7,0,,0,0.,4.8,0.,4.8,,0,0.,4.8,0.,4.8
1979-07-16 18:18:20.750 ,7,0,,0,0.,4.8,0.,4.8,,0,0.,4.8,0.,4.8
1979-07-16 18:18:25.550 ,6,0,,0,0.,4.8,0.,4.8,,0,0.,4.8,0.,4.8
1979-07-16 18:18:30.350 ,6,0,,0,0.,4.8,0.,4.8,,0,0.,4.8,0.,4.8
1979-07-16 18:18:35.150 ,6,0,,0,0.,4.8,0.,4.8,,0,0.,4.8,0.,4.8
1979-07-16 18:18:39.950 ,6,0,,0,4.,4.8,0.,4.8,,0,0.,4.8,0.,4.8
1979-07-16 18:18:44.750 ,6,0,,0,3.,4.8,0.,4.8,,0,0.,4.8,0.,4.8
1979-07-16 18:18:49.550 ,6,0,,0,2.,4.8,0.,4.8,,0,0.,4.8,0.,4.8
1979-07-16 18:18:54.350 ,6,0,,0,2.,4.8,0.,4.8,,0,0.,4.8,0.,4.8
1979-07-16 18:18:59.150 ,6,0,,0,1.,4.8,0.,4.8,,0,0.,4.8,0.,4.8
1979-07-16 18:19:03.950 ,6,0,,0,0.,4.8,0.,4.8,,0,0.,4.8,0.,4.8
1979-07-16 18:19:08.750 ,6,0,,0,0.,4.8,0.,4.8,,0,0.,4.8,0.,4.8
1979-07-16 18:19:13.550 ,5,0,,0,0.,4.8,0.,4.8,,0,0.,4.8,0.,4.8
1979-07-16 18:19:18.350 ,5,0,,0,0.,4.8,0.,4.8,,0,0.,4.8,0.,4.8
1979-07-16 18:19:23.150 ,5,0,,0,0.,4.8,0.,4.8,,0,0.,4.8,0.,4.8
1979-07-16 18:19:27.950 ,5,0,,0,5.,4.8,0.,4.8,,0,0.,4.8,0.,4.8
1979-07-16 18:19:32.750 ,5,0,,0,4.,4.8,0.,4.8,,0,0.,4.8,0.,4.8
1979-07-16 18:19:37.550 ,5,0,,0,3.,4.8,0.,4.8,,0,0.,4.8,0.,4.8
1979-07-16 18:19:42.350 ,5,0,,0,3.,4.8,0.,4.8,,0,0.,4.8,0.,4.8
1979-07-16 18:19:47.150 ,5,0,,0,3.,4.8,0.,4.8,,0,0.,4.8,0.,4.8
1979-07-16 18:19:51.950 ,5,0,,0,0.,4.8,0.,4.8,,0,0.,4.8,0.,4.8
1979-07-16 18:19:56.750 ,5,0,,0,1.,4.8,0.,4.8,,0,0.,4.8,0.,4.8
1979-07-16 18:20:01.550 ,4,0,,0,0.,4.8,0.,4.8,,0,0.,4.8,0.,4.8
1979-07-16 18:20:06.350 ,4,0,,0,0.,4.8,0.,4.8,,0,0.,4.8,0.,4.8
1979-07-16 18:20:11.150 ,4,0,,0,0.,4.8,0.,4.8,,0,0.,4.8,0.,4.8
1979-07-16 18:20:15.950 ,4,0,,0,0.,4.8,0.,4.8,,0,0.,4.8,0.,4.8
1979-07-16 18:20:20.750 ,4,0,,0,2.,4.8,0.,4.8,,0,0.,4.8,0.,4.8
1979-07-16 18:20:25.550 ,4,0,,0,1.,4.8,0.,4.8,,0,0.,4.8,0.,4.8
1979-07-16 18:20:30.350 ,4,0,,0,1.,4.8,0.,4.8,,0,0.,4.8,0.,4.8
1979-07-16 18:20:35.150 ,4,0,,0,0.,4.8,0.,4.8,,0,0.,4.8,0.,4.8
1979-07-16 18:20:39.950 ,4,0,,0,0.,4.8,0.,4.8,,0,0.,4.8,0.,4.8
1979-07-16 18:20:44.750 ,4,0,,0,0.,4.8,0.,4.8,,0,0.,4.8,1.,4.8
1979-07-16 18:20:49.550 ,3,0,,0,0.,4.8,0.,4.8,,0,0.,4.8,0.,4.8
1979-07-16 18:20:54.350 ,3,0,,0,0.,4.8,0.,4.8,,0,0.,4.8,1.,4.8
1979-07-16 18:20:59.150 ,3,0,,0,0.,4.8,0.,4.8,,0,0.,4.8,0.,4.8
1979-07-16 18:21:03.950 ,3,0,,0,3.,4.8,0.,4.8,,0,0.,4.8,0.,4.8
1979-07-16 18:21:08.750 ,3,0,,0,5.,4.8,0.,4.8,,0,0.,4.8,0.,4.8
1979-07-16 18:21:13.550 ,3,0,,0,5.,4.8,0.,4.8,,0,0.,4.8,0.,4.8
1979-07-16 18:21:18.350 ,3,0,,0,4.,4.8,0.,4.8,,0,0.,4.8,0.,4.8
1979-07-16 18:21:23.150 ,3,0,,0,3.,4.8,0.,4.8,,0,0.,4.8,0.,4.8
1979-07-16 18:21:27.950 ,3,0,,0,0.,4.8,0.,4.8,,0,0.,4.8,0.,4.8
1979-07-16 18:21:32.750 ,3,0,,0,0.,4.8,0.,4.8,,0,0.,4.8,0.,4.8
1979-07-16 18:21:37.550 ,2,0,,0,0.,4.8,0.,4.8,,0,0.,4.8,0.,4.8
1979-07-16 18:21:42.350 ,2,0,,0,0.,4.8,0.,4.8,,0,0.,4.8,0.,4.8
1979-07-16 18:21:47.150 ,2,0,,0,1.,4.8,0.,4.8,,0,0.,4.8,0.,4.8
1979-07-16 18:21:51.950 ,2,0,,0,1.,4.8,0.,4.8,,0,0.,4.8,0.,4.8
1979-07-16 18:21:56.750 ,2,0,,0,1.,4.8,0.,4.8,,0,0.,4.8,0.,4.8
1979-07-16 18:22:01.550 ,2,0,,0,5.,4.8,0.,4.8,,0,0.,4.8,0.,4.8
1979-07-16 18:22:06.350 ,2,0,,0,3.,4.8,0.,4.8,,0,0.,4.8,0.,4.8
1979-07-16 18:22:11.150 ,2,0,,0,0.,4.8,0.,4.8,,0,0.,4.8,1.,4.8
1979-07-16 18:22:15.950 ,2,0,,0,0.,4.8,0.,4.8,,0,0.,4.8,0.,4.8
1979-07-16 18:22:20.750 ,2,0,,0,0.,4.8,0.,4.8,,0,0.,4.8,0.,4.8
1979-07-16 18:22:25.550 ,1,0,,0,0.,4.8,0.,4.8,,0,0.,4.8,1.,4.8
1979-07-16 18:22:30.350 ,1,0,,0,0.,4.8,0.,4.8,,0,0.,4.8,0.,4.8
1979-07-16 18:22:35.150 ,1,0,,0,1.,4.8,0.,4.8,,0,0.,4.8,0.,4.8
1979-07-16 18:22:39.950 ,1,0,,0,2.,4.8,0.,4.8,,0,0.,4.8,0.,4.8
1979-07-16 18:22:44.750 ,1,0,,0,1.,4.8,0.,4.8,,0,0.,4.8,0.,4.8
1979-07-16 18:22:49.550 ,1,0,,0,0.,4.8,0.,4.8,,0,0.,4.8,0.,4.8
1979-07-16 18:22:54.350 ,1,0,,0,2.,4.8,0.,4.8,,0,0.,4.8,0.,4.8
1979-07-16 18:22:59.150 ,1,0,,0,2.,4.8,0.,4.8,,0,0.,4.8,0.,4.8
1979-07-16 18:23:03.950 ,1,0,,0,0.,4.8,0.,4.8,,0,0.,4.8,0.,4.8
1979-07-16 18:23:08.750 ,1,0,,0,1.,4.8,0.,4.8,,0,0.,4.8,0.,4.8
1979-07-16 18:23:13.550 ,0,0,,0,0.,4.8,0.,4.8,,0,0.,4.8,0.,4.8
1979-07-16 18:23:18.350 ,0,0,,0,0.,4.8,0.,4.8,,0,0.,4.8,0.,4.8
1979-07-16 18:23:23.150 ,0,0,,0,0.,4.8,0.,4.8,,0,0.,4.8,0.,4.8
1979-07-16 18:23:27.950 ,0,0,,0,0.,4.8,0.,4.8,,0,0.,4.8,0.,4.8
1979-07-16 18:23:32.750 ,0,0,,0,1.,4.8,0.,4.8,,0,0.,4.8,0.,4.8
1979-07-16 18:23:37.550 ,0,0,,0,1.,4.8,0.,4.8,,0,0.,4.8,0.,4.8
1979-07-16 18:23:42.350 ,0,0,,0,2.,4.8,0.,4.8,,0,0.,4.8,0.,4.8
1979-07-16 18:23:47.150 ,0,0,,0,1.,4.8,0.,4.8,,0,0.,4.8,0.,4.8
1979-07-16 18:23:51.950 ,0,0,,0,0.,4.8,0.,4.8,,0,0.,4.8,0.,4.8
1979-07-16 18:23:56.750 ,0,0,,0,0.,4.8,0.,4.8,,0,0.,4.8,0.,4.8
1979-07-16 18:24:01.550 ,0,0,,0,0.,4.8,0.,4.8,,0,0.,4.8,0.,4.8
1979-07-16 18:24:06.350 ,0,0,,0,0.,4.8,0.,4.8,,0,0.,4.8,0.,4.8
1979-07-16 18:24:11.150 ,0,0,,0,0.,4.8,0.,4.8,,0,0.,4.8,0.,4.8
1979-07-16 18:24:15.950 ,0,0,,0,1.,4.8,0.,4.8,,0,0.,4.8,0.,4.8
1979-07-16 18:24:20.750 ,0,0,,0,1.,4.8,0.,4.8,,0,0.,4.8,0.,4.8
1979-07-16 18:24:25.550 ,0,0,,0,0.,4.8,0.,4.8,,0,0.,4.8,0.,4.8
1979-07-16 18:24:30.350 ,0,0,,0,1.,4.8,0.,4.8,,0,0.,4.8,0.,4.8
1979-07-16 18:24:35.150 ,0,0,,0,0.,4.8,0.,4.8,,0,0.,4.8,0.,4.8
1979-07-16 18:24:39.950 ,0,0,,0,0.,4.8,0.,4.8,,0,0.,4.8,0.,4.8
1979-07-16 18:24:44.750 ,0,0,,0,0.,4.8,0.,4.8,,0,0.,4.8,0.,4.8
1979-07-16 18:24:49.550 ,1,0,,0,0.,4.8,0.,4.8,,0,0.,4.8,0.,4.8
1979-07-16 18:24:54.350 ,1,0,,0,0.,4.8,0.,4.8,,0,0.,4.8,0.,4.8
1979-07-16 18:24:59.150 ,1,0,,0,0.,4.8,0.,4.8,,0,0.,4.8,0.,4.8
1979-07-16 18:25:03.950 ,1,0,,0,1.,4.8,0.,4.8,,0,0.,4.8,1.,4.8
1979-07-16 18:25:08.750 ,1,0,,0,1.,4.8,0.,4.8,,0,0.,4.8,0.,4.8
1979-07-16 18:25:13.550 ,1,0,,0,1.,4.8,0.,4.8,,0,0.,4.8,0.,4.8
1979-07-16 18:25:18.350 ,1,0,,0,1.,4.8,0.,4.8,,0,0.,4.8,0.,4.8
1979-07-16 18:25:23.150 ,1,0,,0,3.,4.8,0.,4.8,,0,0.,4.8,0.,4.8
1979-07-16 18:25:27.950 ,1,0,,0,0.,4.8,0.,4.8,,0,0.,4.8,0.,4.8
1979-07-16 18:25:32.750 ,1,0,,0,0.,4.8,0.,4.8,,0,0.,4.8,0.,4.8
1979-07-16 18:25:37.550 ,2,0,,0,0.,4.8,0.,4.8,,0,0.,4.8,0.,4.8
1979-07-16 18:25:42.350 ,2,0,,0,0.,4.8,0.,4.8,,0,0.,4.8,0.,4.8
1979-07-16 18:25:47.150 ,2,0,,0,1.,4.8,0.,4.8,,0,0.,4.8,0.,4.8
1979-07-16 18:25:51.950 ,2,0,,0,2.,4.8,0.,4.8,,0,0.,4.8,0.,4.8
1979-07-16 18:25:56.750 ,2,0,,0,1.,4.8,0.,4.8,,0,0.,4.8,0.,4.8
1979-07-16 18:26:01.550 ,2,0,,0,1.,4.8,0.,4.8,,0,0.,4.8,2.,4.8
1979-07-16 18:26:06.350 ,2,0,,0,2.,4.8,0.,4.8,,0,0.,4.8,0.,4.8
1979-07-16 18:26:11.150 ,2,0,,0,2.,4.8,0.,4.8,,0,0.,4.8,0.,4.8
1979-07-16 18:26:15.950 ,2,0,,0,0.,4.8,0.,4.8,,0,0.,4.8,0.,4.8
1979-07-16 18:26:20.750 ,2,0,,0,0.,4.8,0.,4.8,,0,0.,4.8,0.,4.8
1979-07-16 18:26:25.550 ,3,0,,0,0.,4.8,0.,4.8,,0,0.,4.8,0.,4.8
1979-07-16 18:26:30.350 ,3,0,,0,0.,4.8,0.,4.8,,0,0.,4.8,0.,4.8
1979-07-16 18:26:35.150 ,3,0,,0,0.,4.8,0.,4.8,,0,0.,4.8,0.,4.8
1979-07-16 18:26:39.950 ,3,0,,0,1.,4.8,0.,4.8,,0,0.,4.8,0.,4.8
1979-07-16 18:26:44.750 ,3,0,,0,3.,4.8,0.,4.8,,0,0.,4.8,0.,4.8
1979-07-16 18:26:49.550 ,3,0,,0,1.,4.8,0.,4.8,,0,0.,4.8,0.,4.8
1979-07-16 18:26:54.350 ,3,0,,0,2.,4.8,0.,4.8,,0,0.,4.8,0.,4.8
1979-07-16 18:26:59.150 ,3,0,,0,2.,4.8,0.,4.8,,0,0.,4.8,0.,4.8
1979-07-16 18:27:03.950 ,3,0,,0,0.,4.8,0.,4.8,,0,0.,4.8,0.,4.8
1979-07-16 18:27:08.750 ,3,0,,0,0.,4.8,0.,4.8,,0,0.,4.8,0.,4.8
1979-07-16 18:27:13.550 ,4,0,,0,0.,4.8,0.,4.8,,0,0.,4.8,0.,4.8
1979-07-16 18:27:18.350 ,4,0,,0,0.,4.8,0.,4.8,,0,0.,4.8,1.,4.8
1979-07-16 18:27:23.150 ,4,0,,0,0.,4.8,0.,4.8,,0,0.,4.8,1.,4.8
1979-07-16 18:27:27.950 ,4,0,,0,2.,4.8,0.,4.8,,0,0.,4.8,1.,4.8
1979-07-16 18:27:32.750 ,4,0,,0,3.,4.8,0.,4.8,,0,0.,4.8,0.,4.8
1979-07-16 18:27:37.550 ,4,0,,0,2.,4.8,0.,4.8,,0,0.,4.8,0.,4.8
1979-07-16 18:27:42.350 ,4,0,,0,1.,4.8,0.,4.8,,0,0.,4.8,0.,4.8
1979-07-16 18:27:47.150 ,4,0,,0,4.,4.8,0.,4.8,,0,0.,4.8,0.,4.8
1979-07-16 18:27:51.950 ,4,0,,0,0.,4.8,0.,4.8,,0,0.,4.8,0.,4.8
1979-07-16 18:27:56.750 ,4,0,,0,0.,4.8,0.,4.8,,0,0.,4.8,0.,4.8
1979-07-16 18:28:01.550 ,5,0,,0,0.,4.8,0.,4.8,,0,0.,4.8,1.,4.8
1979-07-16 18:28:06.350 ,5,0,,0,0.,4.8,0.,4.8,,0,0.,4.8,0.,4.8
1979-07-16 18:28:11.150 ,5,0,,0,0.,4.8,0.,4.8,,0,0.,4.8,0.,4.8
1979-07-16 18:28:15.950 ,5,0,,0,2.,4.8,0.,4.8,,0,0.,4.8,0.,4.8
1979-07-16 18:28:20.750 ,5,0,,0,5.,4.8,0.,4.8,,0,0.,4.8,0.,4.8
1979-07-16 18:28:25.550 ,5,0,,0,2.,4.8,0.,4.8,,0,0.,4.8,0.,4.8
1979-07-16 18:28:30.350 ,5,0,,0,5.,4.8,0.,4.8,,0,0.,4.8,0.,4.8
1979-07-16 18:28:35.150 ,5,0,,0,4.,4.8,0.,4.8,,0,0.,4.8,0.,4.8
1979-07-16 18:28:39.950 ,5,0,,0,0.,4.8,0.,4.8,,0,0.,4.8,0.,4.8
1979-07-16 18:28:44.750 ,5,0,,0,0.,4.8,0.,4.8,,0,0.,4.8,1.,4.8
1979-07-16 18:28:49.550 ,6,0,,0,0.,4.8,0.,4.8,,0,0.,4.8,0.,4.8
1979-07-16 18:28:54.350 ,6,0,,0,0.,4.8,0.,4.8,,0,0.,4.8,0.,4.8
1979-07-16 18:28:59.150 ,6,0,,0,1.,4.8,0.,4.8,,0,0.,4.8,0.,4.8
1979-07-16 18:29:03.950 ,6,0,,0,1.,4.8,0.,4.8,,0,0.,4.8,1.,4.8
1979-07-16 18:29:08.750 ,6,0,,0,6.,4.8,1.,4.8,,0,0.,4.8,0.,4.8
1979-07-16 18:29:13.550 ,6,0,,0,0.,4.8,0.,4.8,,0,0.,4.8,0.,4.8
1979-07-16 18:29:18.350 ,6,0,,0,1.,4.8,0.,4.8,,0,0.,4.8,0.,4.8
1979-07-16 18:29:23.150 ,6,0,,0,4.,4.8,0.,4.8,,0,0.,4.8,0.,4.8
1979-07-16 18:29:27.950 ,6,0,,0,0.,4.8,0.,4.8,,0,0.,4.8,0.,4.8
1979-07-16 18:29:32.750 ,6,0,,0,0.,4.8,0.,4.8,,0,0.,4.8,0.,4.8
1979-07-16 18:29:37.550 ,7,0,,0,0.,4.8,0.,4.8,,0,0.,4.8,0.,4.8
1979-07-16 18:29:42.350 ,7,0,,0,0.,4.8,0.,4.8,,0,0.,4.8,0.,4.8
1979-07-16 18:29:47.150 ,7,0,,0,1.,4.8,0.,4.8,,0,0.,4.8,0.,4.8
1979-07-16 18:29:51.950 ,7,0,,0,11.,4.8,0.,4.8,,0,0.,4.8,0.,4.8
1979-07-16 18:29:56.750 ,7,0,,0,12.,4.8,0.,4.8,,0,0.,4.8,0.,4.8
1979-07-16 18:30:01.550 ,7,0,,0,12.,4.8,0.,4.8,,0,0.,4.8,0.,4.8
1979-07-16 18:30:06.350 ,7,0,,0,16.,4.8,0.,4.8,,0,0.,4.8,0.,4.8
1979-07-16 18:30:11.150 ,7,0,,0,8.,4.8,0.,4.8,,0,0.,4.8,0.,4.8
1979-07-16 18:30:15.950 ,7,0,,0,0.,4.8,0.,4.8,,0,0.,4.8,0.,4.8
1979-07-16 18:30:20.750 ,7,0,,0,0.,4.8,0.,4.8,,0,0.,4.8,0.,4.8
1979-07-16 18:30:25.550 ,7,0,,0,0.,4.8,0.,4.8,,0,0.,4.8,0.,4.8
1979-07-16 18:30:30.350 ,7,0,,0,0.,4.8,0.,4.8,,0,0.,4.8,0.,4.8
1979-07-16 18:30:35.150 ,7,0,,0,2.,4.8,0.,4.8,,0,0.,4.8,0.,4.8
1979-07-16 18:30:39.950 ,7,0,,0,15.,4.8,0.,4.8,,0,0.,4.8,0.,4.8
1979-07-16 18:30:44.750 ,7,0,,0,11.,4.8,0.,4.8,,0,0.,4.8,0.,4.8
1979-07-16 18:30:49.550 ,7,0,,0,12.,4.8,0.,4.8,,0,0.,4.8,1.,4.8
1979-07-16 18:30:54.350 ,7,0,,0,8.,4.8,0.,4.8,,0,0.,4.8,0.,4.8
1979-07-16 18:30:59.150 ,7,0,,0,7.,4.8,0.,4.8,,0,0.,4.8,0.,4.8
1979-07-16 18:31:03.950 ,7,0,,0,0.,4.8,0.,4.8,,0,0.,4.8,0.,4.8
1979-07-16 18:31:08.750 ,7,0,,0,0.,4.8,0.,4.8,,0,0.,4.8,0.,4.8
1979-07-16 18:32:01.550 ,0,0,,0,0.,4.8,0.,4.8,,0,0.,4.8,0.,4.8
1979-07-16 18:32:06.350 ,0,0,,0,0.,4.8,0.,4.8,,0,0.,4.8,0.,4.8
1979-07-16 18:32:11.150 ,0,0,,0,0.,4.8,0.,4.8,,0,0.,4.8,0.,4.8
1979-07-16 18:32:15.950 ,0,0,,0,5.,4.8,0.,4.8,,0,0.,4.8,0.,4.8